Weather in Yekaterininskoye

Russia / Altai Krai     50°54′37″N   82°01′00″E
temp.,
°C
wind,
m/s
gust,
m/s
humid.,
%
clouds,
%
prec.,
mm/h
press.,
hPa
HPBL,
m
15 may, sat
sat1501:00+10nne1180100 0.3 102412
04:00+8nne2281100 0.0 102415
07:00+9nne248027 0.0 102572
10:00+15nne47545 0.0 1024672
13:00+18n55415 0.0 10241250
16:00+20n45415 0.0 10221360
19:00+19n354989 0.0 1022732
22:00+14nne11574 0.0 102211
16 may, sun
sun1601:00+12ene11600 0.0 102210
04:00+11se11645 0.0 102110
07:00+12se11672 0.0 102113
10:00+18ssw12495 0.0 1020324
13:00+22w22371 0.0 1019903
16:00+24w22360 0.0 10171415
19:00+24w23430 0.0 1016764
22:00+18s22535 0.0 101612
17 may, mon
mon1701:00+16sse226059 0.0 101517
04:00+15sse2261100 0.0 101538
07:00+14sse2470100 0.0 101572
10:00+18sw335998 0.6 1016373
13:00+22wsw225374 0.8 1015923
16:00+24nnw345015 0.1 10141637
19:00+22nne575939 0.1 1014897
22:00+16ne37835 0.3 1016131
18 may, tue
tue1801:00+14nne11830 0.3 101611
04:00+13n11835 0.0 101611
07:00+14sse11795 0.0 101514
10:00+20wsw23585 0.0 1015538
13:00+24wsw35459 0.0 10131011
16:00+26w573868 0.0 10112478
19:00+19wnw51164100 0.3 1011400
22:00+15wsw2378100 0.1 101135
19 may, wed
wed1901:00+14ese018364 0.2 101011
04:00+13s228693 0.0 100928
07:00+14sse138669 0.2 1009114
10:00+18ssw2372100 0.8 1008499
13:00+21nw345899 2.8 10071180
16:00+19nnw5664100 2.4 10071136
19:00+16nne8107382 3.1 1008938
22:00+10nne71185100 0.0 1012670